Wind_Speed
1 2 3 4 4 4 3 3 3 4 4 5 6 6 7 7 7 7 7 8 7 7 7 7 9 10 11 12 14 15 16 17 17 16 15 14 15 15 14 15 14 14 15 15 15 15 15 16 15 14 16 16 17 21 23 22 22 23 23 23 24 23 24
3 3 4 5 5 4 4 3 3 3 4 5 6 7 7 7 7 7 7 7 6 6 6 5 6 7 8 8 8 8 8 9 10 12 12 14 15 14 13 13 13 13 13 14 16 16 16 16 15 15 14 14 15 18 21 22 22 23 23 24 24 23 24
3 4 5 5 5 4 3 2 2 1 2 3 4 5 7 7 8 8 8 7 6 6 5 5 5 6 7 7 7 7 6 5 5 6 8 10 11 12 12 12 12 13 13 13 14 15 15 16 16 16 15 14 14 16 19 22 24 24 24 23 23 24 26
4 3 4 5 4 2 1 1 2 3 4 3 3 3 4 6 7 8 8 8 8 7 6 6 5 6 6 6 6 6 5 5 4 4 4 5 6 7 7 8 9 10 11 12 13 14 15 16 16 18 17 17 17 18 18 19 21 21 20 21 22 23 25
3 2 2 3 2 1 2 3 4 5 5 6 5 4 3 3 4 6 7 7 8 7 7 7 6 6 7 7 6 6 5 5 4 4 4 4 5 5 5 6 7 8 8 9 10 11 12 13 13 15 17 19 19 19 19 19 19 18 19 23 24 24 26
2 1 2 3 3 3 3 3 5 5 6 6 7 6 6 4 3 2 4 5 6 6 6 6 6 6 7 7 7 7 7 7 7 7 7 7 7 7 7 7 7 8 8 9 9 9 10 10 11 12 12 14 15 14 14 16 18 19 21 26 27 27 27
3 1 2 3 4 3 3 3 3 4 5 6 7 7 7 7 6 4 2 2 3 4 4 5 5 5 5 6 6 7 8 8 9 10 10 11 11 11 11 11 11 11 11 11 11 11 12 12 12 12 12 12 13 12 11 12 14 16 18 20 23 25 26
4 3 2 2 2 3 2 2 2 2 3 4 5 6 7 7 7 6 5 3 3 3 3 3 4 4 4 4 4 5 6 7 8 10 11 12 13 13 13 14 14 14 14 15 15 15 15 15 15 15 15 15 14 14 14 13 14 14 15 15 18 20 22
6 5 4 4 4 4 3 3 1 1 0 2 3 5 6 7 7 7 6 5 4 4 4 4 5 6 6 6 6 6 6 6 7 8 9 10 11 12 12 13 14 15 15 16 16 16 17 17 17 17 17 17 17 16 16 16 16 17 17 17 17 18 20
10 8 8 8 8 7 5 5 4 3 2 3 4 5 6 6 6 7 7 6 5 5 5 5 6 7 7 7 7 7 7 7 7 7 8 8 9 10 10 11 12 13 14 15 15 15 16 16 16 16 16 16 16 16 16 16 16 17 19 20 19 20 21
12 11 12 12 12 11 9 8 7 6 5 4 5 6 7 7 7 7 6 6 6 6 6 6 6 6 6 7 7 7 8 8 9 9 9 10 10 10 11 11 11 12 12 13 14 14 14 15 15 15 14 14 14 14 15 15 15 15 17 19 20 21 22
13 13 15 15 15 14 13 12 11 10 9 8 7 7 8 8 8 8 7 6 5 6 6 6 6 7 7 7 7 8 8 9 9 9 10 10 11 11 11 12 12 13 13 13 13 13 14 14 14 14 14 14 14 14 14 15 15 15 16 18 19 20 21
16 16 17 18 18 16 16 15 15 15 14 13 12 10 9 10 10 9 8 7 6 6 6 6 6 6 7 8 8 8 9 9 9 10 10 10 11 12 12 12 13 13 14 14 14 14 14 15 15 15 15 15 15 14 14 15 17 17 16 18 18 19 20
20 18 18 19 20 20 19 19 18 18 19 19 17 15 14 13 13 12 10 9 9 8 8 8 7 7 7 8 9 10 10 10 10 11 11 12 12 13 14 14 14 15 15 15 16 16 16 16 17 17 17 16 16 16 15 15 16 17 17 17 18 18 19
24 22 20 20 21 20 21 21 21 21 22 22 22 21 20 18 17 16 14 12 12 12 12 12 11 10 10 10 12 13 13 13 12 12 12 13 14 15 15 16 16 17 17 18 18 18 19 19 19 19 19 19 18 18 17 17 17 18 18 18 19 19 19
28 27 27 26 24 22 21 21 22 23 24 24 25 25 25 23 22 21 18 16 15 15 16 16 16 15 15 15 15 16 17 16 16 15 15 16 16 16 17 17 17 18 19 20 20 21 21 21 22 22 22 22 21 20 20 20 20 21 21 21 21 21 21
27 27 28 29 28 27 24 22 21 23 25 26 27 28 29 28 27 26 24 21 20 20 20 19 19 19 19 19 19 19 19 19 19 19 19 19 19 19 19 19 19 19 20 21 22 23 24 24 24 25 25 25 25 25 23 23 23 24 24 24 22 23 23
24 24 25 26 27 28 28 26 24 24 26 28 28 30 32 33 32 31 28 27 25 24 23 23 22 22 22 23 24 24 23 23 22 22 22 22 22 23 23 23 22 22 22 23 23 24 25 26 26 27 28 28 28 28 27 26 26 26 27 26 25 24 24
23 23 23 22 22 23 25 26 27 27 28 30 30 32 34 36 36 35 33 31 30 27 26 26 26 25 25 27 28 28 28 27 27 27 27 27 27 27 27 27 26 25 25 25 25 26 27 27 28 28 29 30 30 31 30 29 29 29 29 29 29 28 26
20 21 20 20 20 20 21 24 26 28 32 34 34 33 34 36 38 37 36 35 32 30 29 29 29 29 29 30 30 31 32 32 32 32 32 33 33 34 33 32 31 30 29 28 27 28 28 29 29 30 30 31 31 32 32 32 31 31 31 31 31 31 31
20 20 21 22 22 23 23 24 26 28 31 36 37 35 36 38 38 39 40 38 36 34 34 34 33 33 33 33 34 35 35 35 36 37 37 37 37 37 37 36 35 35 33 31 30 29 29 30 31 31 32 32 33 33 33 33 34 33 33 33 33 33 33
24 24 24 25 25 26 26 26 27 27 28 33 38 39 40 41 41 41 42 41 39 38 39 38 37 36 36 36 35 36 36 36 38 38 39 39 39 39 39 38 37 37 36 35 33 32 31 31 32 33 33 34 34 35 35 35 35 35 35 35 35 34 35
26 27 27 28 28 29 30 30 31 30 29 31 34 39 43 45 45 45 43 40 40 41 42 42 40 38 37 36 35 35 36 37 37 39 40 40 40 41 41 41 39 38 37 37 36 35 34 33 34 34 34 35 36 36 36 36 36 37 37 37 37 37 37
30 30 30 31 32 33 34 35 35 35 34 33 34 37 40 44 49 48 43 40 43 45 44 44 44 40 36 34 34 35 36 37 38 40 41 41 41 43 43 42 41 40 39 38 37 37 37 36 36 35 36 36 37 37 38 38 38 38 39 40 40 40 40
35 36 37 37 37 36 36 37 38 39 38 36 35 35 37 40 47 49 45 44 47 48 47 47 45 41 36 34 35 37 37 38 39 40 40 40 43 45 43 41 40 40 40 39 38 39 39 39 38 38 37 37 38 38 39 39 40 40 41 42 42 42 42
32 34 35 37 38 37 37 37 38 39 40 39 37 37 37 38 41 45 44 44 47 48 48 48 43 38 36 36 39 40 38 37 37 38 39 41 44 44 42 40 40 40 41 41 39 39 38 39 40 41 40 39 39 39 40 40 41 42 42 43 44 44 43
31 32 32 34 36 37 38 38 38 39 40 40 38 37 38 37 37 38 36 35 39 43 45 44 41 39 39 40 40 40 37 35 36 38 40 41 43 42 40 38 39 40 41 41 41 40 39 39 40 42 42 42 42 42 42 42 42 43 43 44 45 45 45
32 32 32 33 34 35 36 36 37 39 40 40 39 37 37 37 36 34 31 30 33 38 40 41 41 42 42 41 39 37 35 35 36 39 41 41 40 39 38 37 38 39 41 41 41 40 40 40 41 43 43 44 44 44 44 45 45 45 45 46 46 46 46
33 33 33 34 34 34 35 35 36 37 39 40 39 37 37 37 35 33 30 29 32 35 38 39 41 42 42 41 38 35 35 36 38 39 41 40 38 37 37 38 38 39 40 41 41 41 41 41 43 44 45 45 46 46 46 46 47 46 46 47 48 48 48
33 34 34 34 35 35 35 35 35 36 38 39 39 38 37 36 35 32 30 30 33 37 39 40 41 43 43 41 38 36 37 38 38 38 39 38 37 37 38 38 38 39 41 42 42 42 42 42 44 45 46 46 47 47 47 47 47 47 47 48 48 48 48
32 32 32 33 35 35 35 36 36 37 38 38 38 37 36 35 34 32 31 32 35 38 39 40 43 44 43 40 38 38 38 37 36 36 36 36 37 38 39 39 39 40 40 42 43 43 43 43 45 46 47 47 47 47 47 47 48 49 49 50 50 49 48
31 32 33 33 35 35 36 36 37 38 38 38 36 36 35 34 32 32 34 35 36 38 40 43 45 44 40 38 38 37 35 35 35 35 36 37 38 39 40 40 41 42 42 42 42 43 43 45 46 48 48 49 49 48 48 48 49 50 50 51 51 50 49
34 35 35 35 35 35 36 36 36 37 38 36 33 34 34 32 31 32 36 37 38 39 41 42 42 40 36 34 34 34 33 34 34 35 37 38 40 40 41 41 42 44 46 45 44 44 45 46 47 48 49 50 50 49 49 50 50 51 51 51 51 50 50
36 37 36 35 34 34 34 34 34 34 35 33 32 33 33 31 31 34 36 38 41 42 41 40 39 36 33 32 33 34 34 34 35 36 38 40 41 42 43 43 43 45 47 47 47 46 47 47 47 47 48 49 49 50 50 51 51 51 52 51 50 50 49
36 37 36 33 32 32 33 33 32 32 32 32 31 30 29 29 32 36 38 40 42 43 41 39 36 33 33 34 34 35 35 35 36 39 40 42 43 44 44 45 45 46 47 47 47 47 48 48 48 48 48 49 49 50 50 51 51 51 51 51 50 50 49
36 37 35 32 32 32 33 32 31 30 30 29 28 28 29 31 34 39 42 43 41 39 38 37 35 34 35 34 34 34 34 36 38 40 42 43 44 44 45 46 46 46 46 47 47 48 48 48 49 49 49 50 50 50 51 51 51 51 51 51 50 50 50
36 38 36 33 33 34 33 31 29 28 28 27 27 29 33 35 38 41 43 41 38 36 36 35 34 33 32 31 31 33 35 38 40 41 42 43 43 44 45 45 45 46 46 47 48 48 49 49 49 50 51 51 52 52 52 52 51 51 51 51 51 51 50
Wind_Direction
288 230 207 198 194 195 202 218 241 258 265 271 280 285 291 294 293 292 288 288 288 287 287 282 280 279 275 273 272 271 270 269 265 258 252 247 248 251 251 251 255 259 263 263 258 258 263 273 283 267 239 222 214 218 221 221 223 226 225 225 228 235 239
290 264 242 229 231 238 246 259 264 270 271 268 269 271 275 278 282 284 282 283 286 287 289 286 283 287 289 291 292 290 283 276 269 260 253 248 247 249 250 249 250 251 257 260 254 248 248 254 270 284 274 250 233 225 223 224 228 229 229 231 234 240 244
301 278 256 244 245 253 262 277 297 324 322 299 282 272 268 269 270 271 272 273 274 276 277 278 281 286 294 301 307 312 310 296 279 265 257 252 251 251 253 256 256 255 254 255 256 253 251 249 250 262 275 276 265 248 236 233 232 232 233 236 240 245 248
314 297 261 244 241 247 263 28 41 42 34 20 354 315 282 270 265 265 267 268 270 272 271 271 273 277 284 294 302 308 313 312 301 285 270 258 256 255 254 254 255 258 255 253 259 260 258 256 249 246 250 258 265 265 263 256 244 240 243 247 247 250 253
324 317 244 208 188 136 80 54 49 49 42 36 30 19 354 307 277 265 264 266 268 271 272 273 273 274 279 285 292 295 296 299 296 289 281 272 269 266 260 255 252 255 255 253 256 257 258 259 254 248 245 247 252 256 260 262 259 259 264 263 258 256 256
336 341 152 147 139 122 91 65 53 49 43 38 35 29 23 13 351 299 273 267 268 272 275 278 278 279 282 283 288 290 288 287 284 279 276 271 267 264 260 258 255 255 256 254 254 254 255 257 255 254 251 250 252 252 252 253 255 257 259 261 260 260 260
321 289 177 149 140 136 118 87 64 56 48 39 35 32 28 24 22 18 0 315 291 288 286 291 294 291 292 291 289 290 289 287 284 280 277 274 271 267 263 259 257 256 256 255 256 257 257 258 258 258 258 258 258 259 258 255 256 256 256 258 259 260 259
291 297 272 216 175 165 163 141 99 75 55 37 31 30 27 25 24 28 30 23 5 346 332 328 332 335 335 329 319 308 300 294 289 285 282 279 276 273 270 268 265 263 261 261 261 262 263 264 265 264 264 265 265 264 265 265 265 265 263 262 263 263 259
258 283 290 270 243 219 208 209 206 184 15 1 2 8 13 16 18 23 32 36 29 18 11 7 8 8 7 3 355 344 330 316 305 298 291 285 282 279 276 274 273 270 268 268 267 267 267 266 267 267 267 267 266 265 265 266 267 269 268 266 267 267 262
245 261 273 271 261 247 234 233 242 256 276 301 319 332 343 352 1 10 21 31 32 30 25 19 18 17 14 9 2 355 346 336 328 319 310 302 295 292 287 281 278 276 273 272 270 269 269 268 268 268 268 269 269 267 265 264 265 269 270 270 271 270 265
250 260 265 263 261 257 251 249 250 260 271 284 297 306 318 327 335 346 1 16 19 21 25 24 22 18 12 4 357 350 343 337 334 330 324 319 312 307 302 296 290 285 281 278 275 273 271 270 270 269 270 272 273 275 274 271 269 270 272 272 272 271 266
249 256 258 255 257 259 261 260 257 260 265 269 275 286 297 306 313 321 332 349 359 4 11 17 21 18 12 5 356 346 337 331 328 326 324 321 316 311 307 304 300 296 292 288 284 282 279 276 275 274 274 274 274 277 279 279 278 277 276 275 274 274 270
242 247 249 248 251 255 260 263 262 264 267 268 269 271 278 286 295 302 309 318 325 331 339 350 0 4 5 3 357 348 339 331 324 320 316 312 308 305 301 298 296 295 293 291 287 285 284 283 282 280 279 280 279 279 280 280 280 280 279 277 276 275 273
239 242 245 247 248 249 253 259 263 266 268 270 271 270 269 273 279 285 291 297 301 305 310 316 324 331 337 342 339 336 334 332 329 323 316 309 304 299 296 293 290 288 287 285 283 280 278 277 277 277 277 279 281 283 283 281 279 278 278 278 278 277 274
234 234 237 244 248 247 249 254 259 263 266 269 271 272 271 270 271 275 278 283 288 291 295 299 303 307 312 318 321 321 321 323 323 322 319 315 309 303 298 293 290 288 286 284 281 279 277 275 274 273 272 274 277 281 284 285 282 280 280 280 281 281 278
232 233 233 239 244 246 249 254 258 261 265 267 269 270 271 271 269 270 270 273 278 282 286 290 293 296 299 303 306 309 311 312 313 314 313 312 310 307 302 297 292 288 285 283 281 280 279 278 278 278 277 278 279 280 282 284 285 284 284 284 283 283 281
233 233 232 234 237 240 243 248 255 259 261 264 267 268 270 270 269 267 267 268 271 275 279 283 287 290 293 295 297 299 301 303 306 308 308 307 306 305 304 301 297 291 286 282 279 277 277 277 277 278 279 280 281 282 282 283 284 284 285 284 284 282 281
239 242 242 239 239 241 241 241 246 251 255 259 263 266 268 268 267 266 266 265 266 270 276 280 283 286 290 292 294 294 296 298 300 302 303 302 302 302 301 301 299 296 292 287 282 277 275 275 275 275 276 277 279 280 281 281 282 283 285 286 285 283 281
252 257 259 257 255 255 253 249 246 248 253 257 260 262 265 266 266 266 265 262 262 266 272 277 279 281 285 289 290 291 293 295 297 298 298 298 299 300 299 299 298 298 296 293 289 283 279 275 274 273 273 274 275 277 278 278 279 280 282 284 285 285 283
253 256 261 268 270 269 268 264 260 260 259 256 256 257 260 262 264 265 264 263 262 264 267 270 275 279 282 285 287 288 289 292 293 294 294 294 295 297 298 298 298 297 296 296 294 291 286 281 277 275 273 273 273 273 275 276 276 276 277 279 281 283 283
255 256 258 263 267 268 269 270 270 270 265 259 257 255 255 257 260 262 265 265 263 264 265 267 272 275 278 282 286 287 287 290 291 291 291 291 292 294 295 296 297 296 295 293 294 293 291 287 282 280 277 275 274 273 273 274 274 274 274 274 275 277 279
255 255 255 259 261 263 264 264 266 270 269 266 261 256 256 259 258 257 261 264 265 267 268 269 271 273 276 281 285 287 288 290 291 290 289 288 290 292 292 292 294 295 293 290 290 290 290 288 285 282 281 279 278 277 275 275 275 275 275 275 275 276 278
248 251 255 259 261 262 265 266 266 268 270 270 266 261 261 263 259 253 254 259 264 267 270 271 271 272 275 280 284 287 289 290 290 290 288 286 287 289 289 288 290 292 291 288 286 286 287 287 285 283 282 281 279 279 279 278 278 278 278 278 279 280 281
254 257 262 265 267 267 269 271 272 271 271 270 269 269 268 266 260 255 255 259 261 262 265 269 270 270 272 278 283 287 288 288 289 289 287 285 285 286 286 284 284 288 290 287 284 283 282 281 282 282 281 281 280 280 280 279 280 280 280 281 282 283 284
262 264 266 268 270 270 271 273 274 274 272 269 267 268 269 267 261 258 259 262 262 260 258 261 265 266 268 274 282 286 287 286 286 286 285 284 284 286 286 283 281 285 290 288 285 284 282 280 280 279 279 279 279 279 279 279 280 280 281 282 282 283 285
264 264 264 265 267 268 270 272 273 273 273 271 266 263 265 267 265 261 260 262 263 261 257 257 260 262 266 275 282 285 286 284 282 283 284 285 285 287 288 285 283 286 289 287 284 284 284 283 282 281 279 278 277 277 278 278 279 280 281 282 283 284 285
265 265 266 267 268 269 270 270 271 271 271 271 269 265 263 266 266 265 263 260 260 260 259 259 262 265 270 277 282 284 282 280 281 284 284 284 285 288 289 288 287 288 287 286 285 285 285 284 283 282 281 280 279 278 277 277 278 279 280 281 282 283 283
268 269 270 271 272 272 272 271 270 269 268 268 268 267 265 265 265 266 265 260 258 259 258 259 262 265 270 276 279 278 276 277 282 284 283 284 287 290 290 290 288 286 284 284 285 286 286 286 285 283 282 282 281 280 279 279 280 282 282 282 282 282 281
271 272 273 274 275 276 276 275 271 268 266 265 265 266 266 266 265 264 262 257 257 258 258 259 262 266 270 274 273 272 274 278 281 282 283 287 290 289 289 288 286 285 284 285 285 285 286 286 285 283 282 282 281 280 280 280 281 283 283 283 283 282 282
274 276 277 278 280 280 279 278 275 271 268 265 263 264 264 264 264 264 261 255 253 254 255 257 260 263 267 269 268 270 275 279 280 281 284 288 289 288 287 287 286 286 285 285 285 285 286 285 284 282 281 280 280 280 280 280 281 282 281 280 279 280 281
276 278 281 283 285 284 283 280 275 272 269 267 264 262 261 262 263 263 261 255 252 253 254 255 257 260 262 262 265 271 276 280 282 284 286 288 288 288 288 287 286 285 285 285 285 286 286 286 284 283 281 280 280 279 279 280 280 279 278 278 278 278 279
280 282 284 286 287 287 285 281 276 272 271 270 267 262 259 259 258 258 256 253 251 253 255 256 257 258 257 259 267 275 279 282 285 286 287 287 288 288 288 288 288 287 285 285 285 286 286 284 284 284 284 283 282 281 281 280 279 278 278 278 279 279 280
282 284 285 287 288 288 285 280 275 272 270 270 268 264 260 257 254 251 251 251 251 252 254 257 257 255 257 265 275 280 282 283 285 285 286 287 288 288 289 289 290 289 288 287 287 286 284 283 283 283 283 283 283 283 282 281 280 280 280 280 280 281 281
283 284 285 286 287 286 284 279 275 272 268 266 266 264 260 256 252 248 247 249 249 250 253 256 255 255 263 275 279 278 280 282 283 285 287 288 289 290 290 290 290 289 289 289 289 288 286 285 284 283 283 283 283 283 282 281 281 281 281 281 282 282 281
283 282 282 282 282 281 280 277 274 270 264 260 262 262 257 251 246 244 245 245 244 247 252 255 254 259 269 274 273 274 278 282 284 287 288 289 290 290 290 291 290 290 290 290 290 289 288 288 287 285 284 284 283 282 282 281 281 282 282 283 283 282 282
279 276 274 275 276 275 274 271 269 266 260 257 259 258 250 243 241 242 241 239 239 244 250 252 254 260 265 266 268 274 280 283 286 288 288 289 290 290 290 291 291 291 292 291 291 291 290 289 288 287 287 286 285 284 283 283 283 284 284 284 284 284 285
273 269 266 267 270 270 267 265 264 261 255 251 253 252 245 240 239 239 236 235 238 243 246 248 252 257 260 264 270 277 281 283 286 287 289 290 291 292 292 293 294 294 294 293 293 293 292 291 291 290 289 288 288 287 286 286 286 286 286 286 286 286 286
Height
3128 3128 3127 3127 3127 3128 3128 3128 3128 3128 3128 3127 3128 3128 3128 3128 3128 3129 3129 3129 3129 3130 3130 3130 3130 3130 3130 3131 3131 3132 3132 3132 3133 3133 3134 3134 3134 3135 3136 3136 3137 3137 3136 3137 3137 3138 3138 3138 3137 3138 3138 3138 3138 3140 3141 3142 3143 3144 3145 3145 3146 3147 3147
3128 3128 3127 3127 3127 3127 3127 3127 3127 3127 3127 3127 3127 3127 3127 3128 3128 3128 3128 3129 3129 3129 3129 3129 3130 3129 3129 3130 3130 3130 3131 3131 3131 3131 3132 3133 3133 3134 3134 3135 3135 3135 3135 3135 3135 3136 3136 3137 3137 3136 3137 3137 3137 3138 3139 3140 3141 3141 3142 3142 3143 3144 3144
3128 3128 3127 3126 3126 3126 3126 3126 3126 3126 3126 3126 3126 3126 3126 3127 3127 3127 3128 3128 3128 3128 3128 3129 3129 3129 3129 3129 3129 3129 3129 3130 3130 3130 3131 3131 3132 3132 3132 3133 3133 3133 3133 3133 3133 3133 3134 3135 3136 3136 3136 3136 3135 3135 3136 3137 3137 3138 3139 3139 3140 3141 3141
3128 3127 3126 3126 3126 3125 3125 3125 3125 3125 3125 3125 3125 3125 3125 3126 3126 3126 3126 3127 3127 3127 3127 3128 3128 3128 3128 3128 3128 3128 3128 3128 3129 3129 3129 3130 3130 3130 3131 3131 3131 3131 3131 3131 3131 3131 3132 3133 3134 3135 3135 3135 3135 3135 3135 3134 3135 3135 3136 3136 3137 3138 3139
3127 3127 3126 3126 3126 3125 3125 3124 3124 3124 3124 3124 3124 3124 3125 3125 3125 3125 3125 3125 3126 3126 3126 3126 3127 3127 3127 3127 3127 3127 3127 3127 3127 3128 3128 3128 3128 3129 3129 3129 3129 3130 3130 3130 3130 3130 3130 3131 3131 3132 3133 3133 3133 3134 3134 3133 3133 3134 3134 3134 3135 3136 3137
3127 3126 3126 3126 3125 3125 3124 3124 3123 3123 3123 3123 3123 3124 3124 3124 3124 3125 3125 3125 3124 3124 3125 3125 3125 3125 3126 3126 3126 3126 3126 3126 3126 3126 3126 3127 3127 3127 3127 3128 3128 3128 3129 3129 3129 3129 3129 3129 3130 3130 3130 3131 3131 3132 3132 3132 3132 3132 3133 3133 3133 3134 3134
3127 3126 3126 3126 3125 3125 3124 3124 3123 3123 3123 3122 3123 3123 3123 3123 3123 3124 3124 3124 3124 3124 3124 3124 3124 3124 3124 3124 3124 3124 3124 3124 3124 3125 3125 3125 3125 3125 3126 3126 3126 3127 3127 3127 3127 3127 3127 3127 3128 3128 3128 3128 3129 3129 3129 3130 3130 3130 3131 3131 3131 3131 3131
3126 3126 3126 3126 3125 3125 3124 3123 3123 3122 3122 3122 3122 3122 3122 3122 3122 3123 3123 3123 3123 3123 3123 3123 3123 3123 3123 3123 3123 3123 3123 3123 3123 3123 3123 3123 3123 3123 3124 3124 3124 3125 3125 3125 3125 3125 3125 3125 3125 3125 3126 3126 3126 3127 3127 3127 3127 3127 3128 3128 3128 3128 3128
3125 3125 3125 3125 3125 3125 3124 3123 3123 3122 3122 3122 3122 3122 3122 3122 3122 3122 3122 3122 3122 3122 3122 3122 3122 3122 3122 3122 3122 3122 3121 3121 3121 3121 3121 3121 3121 3121 3121 3122 3122 3122 3122 3122 3122 3122 3122 3122 3122 3123 3123 3123 3124 3124 3124 3125 3125 3125 3125 3125 3126 3125 3125
3123 3124 3124 3124 3124 3124 3124 3123 3123 3122 3122 3122 3122 3121 3121 3121 3121 3122 3122 3122 3122 3121 3121 3121 3121 3121 3121 3121 3121 3121 3120 3120 3120 3120 3119 3119 3119 3119 3119 3119 3119 3119 3119 3120 3120 3120 3120 3120 3120 3120 3120 3121 3121 3121 3122 3122 3123 3123 3122 3122 3123 3122 3122
3121 3122 3122 3122 3123 3123 3123 3123 3122 3122 3122 3121 3121 3121 3121 3121 3121 3121 3121 3121 3121 3121 3121 3121 3121 3121 3121 3120 3120 3120 3119 3119 3119 3118 3118 3118 3118 3117 3117 3117 3117 3117 3117 3117 3117 3117 3117 3117 3118 3118 3118 3118 3119 3119 3119 3119 3120 3120 3120 3120 3120 3119 3120
3119 3120 3120 3121 3121 3121 3121 3121 3122 3121 3121 3121 3120 3120 3120 3120 3120 3120 3120 3120 3120 3120 3119 3119 3120 3120 3120 3120 3119 3119 3119 3118 3118 3117 3117 3117 3116 3116 3116 3116 3115 3115 3115 3115 3115 3115 3115 3115 3115 3116 3116 3117 3117 3117 3117 3117 3117 3118 3118 3117 3117 3117 3117
3117 3118 3118 3119 3119 3119 3120 3120 3120 3120 3120 3120 3120 3119 3119 3119 3119 3119 3119 3119 3119 3119 3118 3118 3118 3118 3118 3118 3118 3118 3118 3117 3117 3117 3116 3116 3115 3115 3114 3114 3114 3114 3113 3113 3113 3113 3113 3113 3113 3114 3114 3114 3115 3116 3116 3115 3114 3115 3115 3115 3115 3115 3114
3115 3116 3116 3117 3117 3118 3118 3118 3118 3118 3118 3118 3118 3118 3118 3118 3118 3118 3118 3118 3118 3118 3117 3117 3117 3117 3117 3117 3117 3117 3116 3116 3116 3116 3115 3115 3114 3113 3113 3112 3112 3112 3112 3111 3111 3111 3111 3111 3111 3112 3112 3112 3112 3113 3113 3113 3113 3112 3113 3113 3112 3113 3112
3112 3113 3113 3114 3115 3115 3116 3116 3116 3116 3116 3116 3116 3116 3116 3116 3116 3116 3116 3116 3116 3116 3116 3116 3116 3116 3116 3115 3115 3115 3115 3115 3115 3114 3113 3113 3112 3112 3111 3110 3110 3109 3109 3109 3109 3109 3109 3109 3109 3109 3109 3110 3110 3110 3111 3111 3110 3110 3110 3110 3110 3110 3110
3108 3109 3110 3111 3112 3113 3113 3114 3114 3114 3114 3114 3114 3113 3113 3113 3114 3114 3114 3114 3115 3115 3115 3115 3115 3115 3115 3114 3114 3113 3113 3113 3113 3113 3112 3111 3111 3110 3110 3109 3108 3108 3107 3107 3107 3106 3106 3106 3106 3106 3106 3106 3107 3107 3108 3108 3108 3107 3107 3108 3108 3107 3107
3104 3105 3106 3107 3108 3109 3110 3111 3111 3112 3112 3111 3111 3111 3110 3110 3111 3111 3111 3112 3112 3113 3113 3113 3113 3113 3113 3113 3112 3112 3111 3111 3111 3110 3110 3110 3109 3109 3108 3107 3107 3106 3105 3105 3104 3104 3103 3103 3103 3103 3103 3103 3103 3103 3104 3105 3105 3104 3104 3104 3105 3105 3104
3102 3103 3103 3103 3104 3105 3105 3106 3107 3108 3109 3108 3108 3108 3107 3106 3107 3107 3108 3109 3109 3110 3111 3111 3111 3111 3111 3110 3110 3110 3109 3109 3108 3108 3107 3107 3107 3106 3106 3105 3105 3104 3103 3102 3102 3101 3101 3100 3100 3100 3099 3099 3099 3099 3100 3101 3101 3100 3100 3099 3100 3100 3100
3100 3100 3100 3101 3101 3101 3102 3103 3103 3105 3105 3105 3105 3105 3104 3103 3103 3103 3104 3105 3106 3107 3108 3109 3108 3108 3108 3108 3108 3107 3107 3106 3106 3105 3104 3104 3104 3103 3103 3103 3102 3101 3100 3100 3099 3098 3098 3097 3097 3096 3096 3095 3095 3095 3096 3096 3097 3097 3096 3095 3095 3095 3095
3096 3096 3097 3097 3097 3098 3099 3099 3100 3101 3102 3102 3101 3101 3101 3100 3099 3099 3100 3101 3102 3104 3104 3105 3105 3105 3104 3104 3104 3104 3104 3103 3103 3102 3102 3101 3100 3100 3099 3099 3098 3098 3097 3096 3096 3095 3094 3094 3093 3093 3092 3091 3091 3091 3091 3092 3093 3093 3093 3092 3091 3090 3090
3093 3093 3093 3094 3094 3095 3096 3096 3097 3097 3098 3098 3098 3098 3097 3095 3095 3096 3096 3097 3099 3099 3100 3100 3101 3101 3101 3101 3101 3101 3101 3100 3099 3099 3098 3097 3097 3096 3096 3095 3095 3094 3094 3093 3092 3091 3090 3089 3089 3088 3088 3087 3087 3087 3087 3087 3087 3088 3088 3088 3088 3087 3087
3090 3090 3091 3091 3091 3092 3092 3093 3093 3094 3094 3094 3094 3094 3092 3091 3091 3092 3092 3092 3094 3095 3095 3096 3096 3097 3097 3097 3097 3097 3097 3096 3095 3094 3094 3093 3093 3093 3092 3092 3091 3091 3090 3089 3088 3087 3086 3085 3084 3084 3083 3082 3082 3081 3082 3082 3082 3082 3082 3082 3083 3083 3082
3086 3086 3087 3087 3087 3088 3088 3089 3089 3089 3089 3090 3090 3089 3088 3086 3086 3086 3087 3089 3090 3090 3091 3091 3092 3093 3093 3093 3093 3093 3092 3092 3091 3090 3089 3089 3088 3088 3087 3087 3087 3087 3086 3085 3084 3083 3082 3081 3080 3079 3078 3078 3077 3076 3076 3076 3076 3076 3076 3076 3076 3076 3075
3081 3082 3083 3083 3083 3083 3083 3084 3084 3084 3084 3084 3084 3084 3084 3084 3083 3082 3084 3086 3086 3085 3086 3087 3087 3088 3089 3089 3089 3088 3088 3087 3086 3085 3084 3084 3083 3082 3082 3081 3081 3082 3081 3080 3079 3078 3077 3076 3075 3075 3074 3073 3072 3072 3071 3071 3071 3071 3070 3070 3070 3070 3069
3077 3078 3078 3079 3079 3079 3079 3079 3079 3079 3079 3079 3079 3079 3079 3080 3079 3079 3080 3081 3080 3080 3081 3082 3082 3083 3084 3084 3084 3084 3083 3082 3081 3080 3080 3079 3078 3077 3076 3076 3076 3076 3076 3075 3074 3073 3071 3070 3070 3070 3069 3069 3068 3067 3067 3066 3065 3065 3065 3064 3064 3064 3064
3072 3073 3073 3074 3074 3074 3074 3074 3074 3074 3074 3074 3074 3074 3074 3075 3075 3075 3076 3076 3075 3075 3077 3077 3078 3079 3080 3079 3079 3079 3079 3078 3077 3076 3075 3074 3073 3071 3071 3070 3070 3070 3070 3069 3069 3068 3067 3065 3064 3063 3063 3063 3063 3062 3062 3061 3060 3060 3059 3058 3058 3058 3058
3068 3068 3069 3069 3069 3069 3069 3069 3069 3069 3069 3069 3069 3069 3070 3070 3070 3070 3071 3071 3071 3071 3072 3073 3075 3075 3075 3075 3075 3074 3074 3073 3072 3071 3070 3069 3068 3067 3066 3066 3066 3065 3064 3063 3062 3062 3061 3060 3058 3057 3057 3056 3056 3056 3055 3055 3054 3054 3053 3053 3052 3052 3052
3063 3064 3064 3064 3064 3065 3064 3065 3065 3065 3064 3064 3064 3064 3065 3065 3066 3066 3066 3067 3067 3067 3068 3069 3070 3070 3069 3069 3069 3069 3069 3069 3068 3066 3065 3064 3063 3062 3061 3061 3061 3060 3059 3058 3057 3056 3056 3054 3052 3051 3051 3050 3050 3049 3048 3048 3047 3047 3046 3046 3045 3045 3045
3058 3059 3059 3059 3060 3060 3060 3060 3060 3060 3060 3060 3059 3060 3060 3061 3061 3061 3061 3061 3062 3063 3064 3064 3064 3064 3064 3064 3064 3065 3065 3064 3063 3062 3060 3059 3058 3057 3056 3056 3056 3055 3054 3053 3052 3051 3050 3049 3047 3046 3045 3044 3043 3043 3042 3041 3041 3041 3040 3039 3038 3037 3037
3054 3054 3054 3054 3054 3054 3054 3054 3054 3054 3055 3055 3055 3055 3055 3055 3056 3056 3057 3057 3057 3057 3058 3058 3058 3059 3059 3060 3060 3060 3060 3059 3058 3057 3056 3054 3053 3052 3051 3051 3051 3050 3048 3047 3046 3045 3045 3044 3042 3041 3039 3038 3037 3036 3035 3035 3035 3034 3033 3032 3031 3031 3030
3049 3050 3050 3050 3049 3049 3049 3049 3048 3049 3049 3050 3050 3050 3050 3051 3051 3052 3053 3053 3052 3052 3052 3053 3053 3054 3055 3056 3056 3056 3055 3054 3053 3052 3051 3050 3048 3047 3046 3045 3045 3044 3043 3042 3040 3040 3039 3038 3036 3034 3033 3032 3031 3030 3030 3029 3028 3027 3025 3024 3024 3024 3024
3044 3045 3045 3045 3045 3044 3044 3043 3043 3043 3044 3044 3045 3045 3046 3046 3047 3048 3048 3048 3048 3048 3048 3048 3049 3050 3051 3051 3052 3052 3051 3050 3049 3048 3046 3045 3043 3042 3041 3040 3039 3038 3036 3036 3035 3034 3033 3031 3029 3027 3026 3025 3024 3023 3023 3022 3021 3019 3018 3016 3016 3015 3016
3039 3040 3040 3040 3040 3039 3039 3039 3039 3039 3039 3040 3041 3041 3041 3042 3043 3043 3044 3044 3043 3043 3043 3044 3045 3045 3046 3047 3048 3047 3047 3046 3044 3043 3042 3041 3039 3038 3036 3035 3033 3031 3029 3028 3029 3028 3026 3025 3023 3021 3019 3017 3016 3015 3015 3013 3011 3010 3009 3008 3008 3007 3007
3034 3034 3035 3035 3034 3034 3034 3034 3034 3035 3035 3036 3036 3036 3037 3038 3038 3038 3038 3039 3038 3038 3038 3039 3040 3041 3043 3043 3044 3043 3042 3041 3040 3039 3038 3036 3034 3033 3031 3029 3027 3025 3023 3022 3021 3020 3019 3017 3016 3014 3012 3010 3009 3007 3006 3004 3003 3002 3001 3000 3000 3000 2999
3029 3029 3029 3030 3030 3030 3029 3029 3029 3030 3030 3031 3032 3032 3033 3034 3033 3033 3032 3033 3033 3034 3035 3035 3036 3038 3039 3039 3039 3039 3038 3037 3036 3034 3033 3031 3029 3027 3026 3024 3021 3019 3017 3016 3014 3013 3011 3010 3008 3007 3005 3003 3002 3000 2998 2997 2995 2994 2993 2993 2992 2991 2991
3023 3023 3024 3025 3025 3025 3024 3024 3025 3025 3025 3026 3027 3028 3028 3028 3028 3027 3027 3028 3029 3030 3032 3032 3033 3034 3034 3034 3034 3034 3033 3032 3031 3029 3027 3026 3024 3022 3020 3018 3015 3013 3011 3009 3007 3005 3003 3002 3000 2998 2997 2995 2993 2992 2990 2989 2987 2986 2985 2984 2983 2982 2982
3018 3018 3019 3019 3019 3019 3019 3019 3020 3021 3021 3022 3022 3022 3022 3022 3022 3022 3023 3025 3026 3027 3028 3029 3030 3031 3031 3030 3030 3030 3029 3028 3026 3025 3023 3020 3019 3016 3014 3012 3009 3007 3004 3002 3000 2998 2995 2994 2992 2990 2988 2987 2985 2984 2982 2980 2979 2978 2977 2976 2975 2974 2974